Regional Weather Roundup
Issued by NWS Grand Forks, ND

Home | Current Version | Previous Version | Text Only | Print | Product List | Glossary Off
Versions: 1 2 3 4 5 6 7 8 9 10 11 12 13 14 15 16 17 18 19 20 21 22 23 24 25 26 27 28 29 30 31 32 33 34 35 36 37 38 39 40 41 42 43 44 45 46 47 48 49 50

418
ASUS43 KFGF 260931
RWRFGF
PRAIRIE TO PINES  WEATHER ROUNDUP
NATIONAL WEATHER SERVICE EASTERN NORTH DAKOTA/GRAND FORKS ND
400 AM CDT TUE SEP 26 2017

 **SATELLITE DATA USED TO AUGMENT SKY COVER AT AUTOMATED STATIONS**
 *****  WEATHER ACROSS EASTERN NORTH DAKOTA  *****

CITY           SKY/WX    TMP DP  RH WIND       PRES   REMARKS
GRAND FORKS    LGT RAIN  50  50 100 N8        30.07F
GRAND FRKS AFB LGT RAIN  48  48 100 N6        30.08S
DEVILS LAKE    CLOUDY    45  43  93 NE5       30.11F
FARGO          LGT RAIN  50  50 100 N9        30.04F
WAHPETON ARPT  CLOUDY    50  46  87 N10       30.02F
$$

 ***** WEATHER ACROSS CENTRAL AND WESTERN NORTH DAKOTA  *****

CITY           SKY/WX    TMP DP  RH WIND       PRES   REMARKS
BISMARCK       CLOUDY    46  46 100 CALM      30.11F
MINOT          CLOUDY    49  44  83 S3        30.11S
JAMESTOWN      CLOUDY    47  45  93 N9        30.06F FOG
MINOT AFB      CLOUDY    47  45  93 S3        30.10S
GARRISON         N/A     45  44  97 E3        30.11S
WILLISTON      CLOUDY    47  45  93 S3        30.10S
DICKINSON      CLOUDY    45  44  97 SE5       30.08F
HETTINGER      LGT RAIN  44  42  93 SE5       30.11S
$$

 *****  OTHER AIRPORT OBSERVATIONS IN OUR AREA  *****

CITY           SKY/WX    TMP DP  RH WIND       PRES   REMARKS
WALHALLA       FAIR     N/A N/A N/A NW8       30.12S
GRAFTON AIRPOR CLOUDY    48  48 100 N7        30.11S
VALLEY CITY AR LGT RAIN  46  46 100 N8        30.06F
CANDO          CLOUDY    43  43 100 N6        30.13F
CAVALIER APRT  CLOUDY    48  46  93 NW8       30.10F
GWINNER        CLOUDY    48  48 100 N6        30.04R FOG
SHEYENNE NWR     N/A     49  49 100 NE7       29.95S
ROLLA          CLOUDY    43  43 100 CALM      30.13S
 ***** THE ABOVE OBSERVATIONS ARE NON NWS ARE NOT QUALITY
       CONTROLLED AND MAY MIS-REPORT RAIN FOR SNOW...
$$

  *****  WEATHER ACROSS NORTHERN MINNESOTA  *****

CITY           SKY/WX    TMP DP  RH WIND       PRES   REMARKS
FLAG ISLAND    FAIR      52  46  82 NE9       30.06F
WARROAD        CLOUDY    52  48  87 NE7       30.08S
ROSEAU         DRIZZLE   50  45  81 N7        30.07F
HALLOCK        DRIZZLE   50  48  93 N5        30.09F
THF RVR FALLS  LGT RAIN  49  48  97 N8        30.07F
BAUDETTE       CLOUDY    50  48  93 NE9       30.06S
WASKISH        LGT RAIN  48  48 100 NE5       30.03S
CROOKSTON      LGT RAIN  48  48 100 N7        30.07S
STEPHEN NDAWN    N/A     48  48 100 N6          N/A
GREENBUSH NDAW   N/A     48  48 100 N3          N/A
$$
  *****  WEATHER ACROSS CENTRAL AND WEST MINNESOTA  *****

CITY           SKY/WX    TMP DP  RH WIND       PRES   REMARKS
FOSSTON        RAIN      48  46  93 N8        30.05S
BEMIDJI        RAIN      49  49  98 CALM      30.02S
PARK RAPIDS    LGT RAIN  51  49  92 NW7       30.00F
ELBOW LAKE     CLOUDY    51  51 100 NW8       30.01S
WADENA         RAIN      50  50 100 NW6       30.00S
DETROIT LAKES  RAIN      50  50 100 N6        30.03F
MOORHEAD       RAIN      50  48  93 N9        30.04F
FERGUS FALLS   CLOUDY    52  52 100 N9        30.02F
MORRIS MN      NOT AVBL
STAPLES        DRIZZLE   52  52 100 NW6       29.98S
$$
  *****  WEATHER ELSEWHERE ACROSS MINNESOTA  *****

CITY           SKY/WX    TMP DP  RH WIND       PRES   REMARKS
DULUTH         LGT RAIN  53  53 100 E13       29.94S FOG
INTRNTL FALLS  CLOUDY    52  47  83 NE7       30.03S
ELY            DRIZZLE   50  50 100 NE5       29.98F
CLOQUET        RAIN      55  52  88 E10       29.93F
WHEATON        CLOUDY    50  48  93 N7        30.03S
BRAINERD       LGT RAIN  53  52  96 N8        29.96F FOG
HIBBING        RAIN      51  50  96 NE9       29.96F FOG
ALEXANDRIA     LGT RAIN  53  52  96 N8        29.99S
SAINT CLOUD    LGT RAIN  55  55 100 NW6       29.94S FOG
MINNEAPOLIS    LGT RAIN  58  58 100 NW6       29.91F
$$

  *****  WEATHER ACROSS SOUTH DAKOTA  *****

CITY           SKY/WX    TMP DP  RH WIND       PRES   REMARKS
SIOUX FALLS    LGT RAIN  51  51 100 NW6       30.02R
BROOKINGS      NOT AVBL
WATERTOWN      CLOUDY    48  48 100 N7        30.01S
HURON          CLOUDY    49  48  97 N8        30.07R
SISSETON         N/A     50  50 100 N7        30.01F
ABERDEEN       LGT RAIN  48  48 100 NW9       30.07S FOG
MITCHELL       CLOUDY    50  48  93 NW12      30.07S
PIERRE         FAIR      44  42  93 W5        30.09R
MOBRIDGE       CLOUDY    45  42  89 NE3       30.08S
RAPID CITY     NOT AVBL
$$

  *****  SOME WEATHER IN NEARBY STATES *****

CITY           SKY/WX    TMP DP  RH WIND       PRES   REMARKS
GLASGOW MT     FAIR      38  37  97 SE9       30.07F
GREAT FALLS MT CLOUDY    50  40  68 SW10      30.06R
CHEYENNE WY    FAIR      40  38  93 SW6       30.16F
SCOTTSBLUFF NE FAIR      39  37  92 SE6       30.14S
OMAHA NE       CLOUDY    57  54  89 NW14      29.99R
DES MOINES IA  CLOUDY    66  66 100 SE6       29.91F
DAVENPORT IA   FAIR      69  66  90 E8        29.93F
CHICAGO IL     FAIR      72  57  59 CALM      29.92F
EAU CLAIRE WI  CLOUDY    63  62  97 CALM      29.89F
LA CROSSE WI   MOCLDY    68  67  96 NE3       29.89F
$$

  *****  SOME NATIONAL WEATHER *****

CITY           SKY/WX    TMP DP  RH WIND       PRES   REMARKS
LA GUARDIA NY  MOCLDY    69  67  93 NE5       30.01F
RALEIGH NC     CLOUDY    69  68  96 N7        29.92S
ATLANTA GA     FAIR      71  62  73 NE6       29.97S
NEW ORLEANS LA MOCLDY    77  75  93 E5        29.88S
OKLAHOMA CITY  LGT RAIN  68  68 100 N10       29.94F FOG
ALBUQUERQUE NM FAIR      59  50  72 E22G28    30.01S
SALT LAKE CITY FAIR      45  38  76 CALM      30.12S
LOS ANGELES CA FAIR      64  53  67 E5        29.78F
BOISE ID       CLOUDY    53  38  56 SE9       30.10S
SEATTLE WA     FAIR      59  54  83 CALM      30.15R
$$

*** WEATHER ACROSS MANITOBA...SASKATCHEWAN AND ONTARIO ***
                ***ONTARIO***

CITY           SKY/WX    TMP DP  RH WIND       PRES   REMARKS
GERALDTON      DRIZZLE   48  46  93 NE12      30.07F FOG
THUNDER BAY    CLOUDY    54  48  82 N5        30.01S
SIOUX LOOKOUT  CLOUDY    46  45  93 VRB2      30.10S
TORONTO        MOCLDY    70  64  83 CALM      29.99S
BIG TROUT LK   CLOUDY    39 N/A N/A VRB2      30.23S
PICKLE LAKE    NOT AVBL
DRYDEN         LGT RAIN  48  46  93 NE8       30.08F FOG
KENORA         CLOUDY    48  46  93 NE8       30.10F
$$
                *** MANITOBA***

CITY           SKY/WX    TMP DP  RH WIND       PRES   REMARKS
BRANDON        MOCLDY    41  39  93 NE3       30.14F
DAUPHIN        CLEAR     34  34 100 CALM      30.15F
ISLAND LAKE    NOT AVBL
PILOT MOUND      N/A     41  39  93 N5          N/A
THE PAS        PTCLDY    41  39  93 SE8       30.08F
THOMPSON       PTCLDY    36  34  93 E3        30.13F
WINNIPEG       MOCLDY    46  46 100 N6        30.12F
LYNN LAKE      CLOUDY    45  43  93 S9        29.98F
CHURCHILL      CLEAR     32  30  93 S9        30.18S WCI  24
GILLAM         CLEAR     30  27  86 S5        30.20F
$$
                ***SASKATCHEWAN***

CITY           SKY/WX    TMP DP  RH WIND       PRES   REMARKS
ESTEVAN        CLOUDY    45  43  93 E2        30.10F
KINDERSLEY     PTCLDY    43  32  65 S5        29.97S
LLOYDMINSTER   CLOUDY    48  45  87 SW6       29.93S
PRINCE ALBERT  CLEAR     48  37  66 S5        30.02S
REGINA         PTCLDY    36  34  93 SE9       30.09F
YORKTON        CLOUDY    46  39  76 S6        30.11S
N. BATTLEFORD  CLOUDY    48  37  66 SE7       29.97S
LA RONGE       MOCLDY    52  43  71 S9        29.92F
SASKATOON      MOCLDY    46  36  66 S9        30.00S
SWIFT CURRENT  CLOUDY    45  34  65 S15G23    29.99F
$$
NOTE: THESE ARE AUTOMATED STATIONS WITH LIMITED QUALITY CONTROL
      "FAIR" INDICATES FEW OR NO CLOUDS BELOW 12,000 FEET WITH NO
      SIGNIFICANT WEATHER AND/OR OBSTRUCTIONS TO VISIBILITY.
      SKY/WX - SKY CONDITION AND SIGNIFICANT WEATHER.
      TMP - AIR TEMPERATURE.    DP   - DEWPOINT TEMPERATURE.
      RH  - RELATIVE HUMIDITY.  PRES - PRESSURE.
      HX  - HEAT INDEX.         WCI  - WIND CHILL INDEX.
$




USA.gov is the U.S. government's official web portal to all federal, state and local government web resources and services.